Content
SEND FEEDBACK

Daily
Averages
Monthly
Summary
United States of America

MALDEN, MISSOURI


Home > North America > United States > Missouri
Elevation: 89 meters     Latitude: 36 36N     Longitude: 089 59W

WEATHER
 
SELECT A DAY
Number of Records: 207,877;   Date Range: 1/1/95 - 9/3/14
 
SHARE

PRINT THIS DATA

[ ← Previous Day ]
WEATHER ALMANAC - 17 JUNE, 2014
[ Next Day → ]
[ °F ]   °C
Weather ElementAverageHighLow
Temperature28.2 °C32.2 °C (3:53 pm)23.9 °C (5:53 am)
Dewpoint20.2 °C21.1 °C (7:53 am)18.9 °C (4:53 pm)
Humidity62.8 %82 % (5:53 am)45 % (4:53 pm)
Barometer1016.3 hPa1018.3 hPa (11:20 am)1014.6 hPa (2:53 am)
Wind Speed18.5 km/h27.8 km/h (2:53 pm)
Wind Gust38.9 km/h (2:53 pm)
Weather ElementAverage
Visibility16.1 km
Wind DirectionSSW (197.2 °)

Weather ElementTotal
Precipitation---
Cooling Degree Days9.7 (Base 18.3)
Growing Degree Days18.1 (Base 10)
Averaged from 25 records on 17 June, 2014
WEATHER CONDITIONS BREAKOUT
WIND DIRECTION BREAKOUT
WEATHER BY HOUR - 17 JUNE, 2014
[ °F ]   °C
Local TimeTemperatureDewpointHumidityBarometerVisibilityWind DirectionWind SpeedGust SpeedPrecipitationEventsConditions
1:53 AM25.6 °C20 °C71 %1014.9 hPa16.1 kmSouth (180°)13 km/hClear
2:53 AM25 °C20.6 °C76 %1014.6 hPa16.1 kmSouth (190°)14.8 km/hClear
3:53 AM24.4 °C20.6 °C79 %1014.6 hPa16.1 kmSSW (200°)14.8 km/hClear
4:53 AM24.4 °C20.6 °C79 %1015.2 hPa16.1 kmSouth (190°)13 km/hClear
5:53 AM23.9 °C20.6 °C82 %1016.3 hPa16.1 kmSouth (180°)11.1 km/hClear
6:53 AM24.4 °C20.6 °C79 %1016.9 hPa16.1 kmSSW (200°)16.7 km/hClear
7:53 AM25.6 °C21.1 °C76 %1017.3 hPa16.1 kmSW (220°)16.7 km/hClear
8:53 AM27.2 °C21.1 °C69 %1017.3 hPa16.1 kmSW (220°)24.1 km/hScattered Clouds
9:53 AM28.3 °C21.1 °C65 %1017.3 hPa16.1 kmSW (220°)22.2 km/hPartly Cloudy
10:53 AM29.4 °C21.1 °C61 %1017.3 hPa16.1 kmSSW (200°)25.9 km/hScattered Clouds
11:20 AM30 °C21.1 °C59 %1018.3 hPa16.1 kmSSW (210°)24.1 km/hMostly Cloudy
11:28 AM29.4 °C20.6 °C59 %1018.3 hPa16.1 kmSW (220°)20.4 km/hScattered Clouds
11:53 AM30 °C20.6 °C57 %1017.6 hPa14.5 kmSW (220°)18.5 km/hScattered Clouds
12:53 PM31.1 °C20.6 °C53 %1016.9 hPa16.1 kmSSW (210°)25.9 km/h35.2 km/hPartly Cloudy
1:53 PM31.1 °C20 °C51 %1016.3 hPa16.1 kmSSW (200°)24.1 km/h37 km/hClear
2:53 PM31.7 °C19.4 °C48 %1015.6 hPa16.1 kmSSW (210°)27.8 km/h38.9 km/hPartly Cloudy
3:53 PM32.2 °C19.4 °C46 %1015.2 hPa16.1 kmSSW (210°)25.9 km/h37 km/hPartly Cloudy
4:53 PM32.2 °C18.9 °C45 %1015.2 hPa16.1 kmSouth (190°)25.9 km/h37 km/hPartly Cloudy
5:53 PM31.1 °C18.9 °C48 %1014.9 hPa16.1 kmSSW (200°)18.5 km/h35.2 km/hPartly Cloudy
6:53 PM30 °C18.9 °C51 %1014.9 hPa16.1 kmSouth (190°)18.5 km/hClear
7:53 PM28.9 °C19.4 °C56 %1014.9 hPa16.1 kmSouth (180°)13 km/hClear
8:53 PM27.8 °C19.4 °C60 %1015.6 hPa16.1 kmSouth (180°)9.3 km/hClear
9:53 PM27.2 °C20 °C65 %1015.9 hPa16.1 kmSSE (160°)11.1 km/hClear
10:53 PM26.7 °C20 °C67 %1015.9 hPa16.1 kmSSE (160°)11.1 km/hClear
11:53 PM26.7 °C20 °C67 %1015.6 hPa16.1 kmSouth (190°)16.7 km/hClear
Hourly data recorded from KPOF, located 0 kilometers away from Malden, Missouri







STORIES FROM OUR PARTNERS